Погода в Широком Буераке

Россия / Саратовская область     51°19′11″N   45°47′12″E
темп.,
°C
ветер,
м/с
пор.,
м/с
влажн.,
%
обл.,
%
осадки,
мм/ч
давл.,
гПа
погр.,
м
6 марта, сб
сб601:00−5зсз3487100 0.0 101459
04:00−6сз238898 0.0 101621
07:00−7сз119096 0.0 101621
10:00−5ссв118398 0.0 1016143
13:00−4всв2283100 0.0 1015301
16:00−3всв3384100 0.0 1014367
19:00−5всв2291100 0.0 101472
22:00−5св2294100 0.1 101474
7 марта, вс
вс701:00−6ссв1195100 0.1 101357
04:00−7сз2294100 0.3 101479
07:00−8зсз479396 0.3 1015224
10:00−8зсз698883 0.3 1016334
13:00−6з711850 0.0 1016547
16:00−4зюз7117616 0.0 10141061
19:00−4ююз71577100 0.0 1011582
22:00−3юз101875100 0.0 1008765
8 марта, пн
пн801:00−3юз122084100 0.1 1005884
04:00−2зюз10179098 0.4 1005683
07:00−2зюз8159084 0.2 1005555
10:00−1з8138188 0.4 10061178
13:000зюз7118660 0.1 1006814
16:00+1юз8148480 0.2 1005825
19:00−3сз71389100 1.6 1006746
22:00−6зсз61081100 1.6 1008320
9 марта, вт
вт901:00−10з698884 0.0 1010198
04:00−12з6108942 0.0 1011186
07:00−13з69900 0.0 1013196
10:00−11зсз69880 0.0 1014260
13:00−8зсз458611 0.0 1014376
16:00−7зсз458146 0.0 1014603
19:00−10сз348874 0.0 101553
22:00−12зсз458976 0.0 101789
10 марта, ср
ср1001:00−13зсз4688100 0.0 1017164
04:00−13зсз4788100 0.0 1018207
07:00−16зсз589070 0.0 1019199
10:00−16сз698535 0.0 1021351
13:00−14сз69790 0.0 1023617
16:00−14зсз69795 0.0 1023669
19:00−17зсз498710 0.0 1024279
22:00−19сз58885 0.0 1026209